Location: Unspecified
(0.0000°N, 0.0000°E)
Time: 18:40:55
(UTC+01:00)

H-2A R/B - Visible Passes

Search period start: 19 November 2017 00:00
Search period end: 29 November 2017 00:00
Orbit: 260 x 33063 km, 28.5° (Epoch: 18 November)

Date Brightness Start Highest point End Pass type
(mag) Time Alt. Az. Time Alt. Az. Time Alt. Az.
19 Nov 9.5 00:35:00 10° ENE 02:31:36 16° ENE 03:35:06 10° ENE visible
19 Nov 8.8 07:13:16 10° WNW 07:43:44 11° WNW 08:19:45 10° WNW visible
20 Nov 6.7 00:34:11 10° W 01:42:31 55° N 09:37:09 10° ESE visible
20 Nov 4.0 19:40:26 10° SSW 19:45:15 47° SE 04:13:45 10° E visible
22 Nov 6.9 00:57:03 10° WNW 05:07:10 57° NNW 09:58:36 10° SE visible
22 Nov 3.9 20:01:14 10° SW 20:06:35 65° SE 04:44:55 10° E visible
24 Nov 6.9 01:20:14 10° WNW 04:34:32 55° NNW 10:19:47 10° SE visible
24 Nov 4.1 20:22:06 10° SW 20:28:10 82° SE 05:12:32 10° E visible
26 Nov 6.6 01:43:49 10° WNW 04:29:02 52° NNW 10:40:44 10° SE visible
26 Nov 4.5 20:42:59 10° WSW 20:50:05 83° NNW 05:38:04 10° E visible
28 Nov 6.4 02:07:57 10° WNW 04:38:39 48° NW 11:01:27 10° SSE visible
